EW6567 Weather Reports


Display with metric or nautical units.
time (UTC)temp
F
wind
direction
speed
MPH
gust
MPH
rain 1hr
in
rain 24hr
in
rain mn
in
humidity
%
barometer
mb
20190921212909 68 138 1.0 2.0 0.00 0.00 0.00 72 1019.3
20190921212410 67 213 0.0 2.0 0.00 0.00 0.00 71 1019.4
20190921211909 67 245 0.0 2.0 0.00 0.00 0.00 72 1019.5
20190921211407 67 200 0.0 2.0 0.00 0.00 0.00 73 1019.5
20190921210903 67 0 0.0 1.0 0.00 0.00 0.00 72 1019.6
20190921210402 67 0 0.0 2.0 0.00 0.00 0.00 72 1019.7
20190921205905 66 0 0.0 3.0 0.00 0.00 0.00 72 1019.7
20190921205403 66 227 0.0 3.0 0.00 0.00 0.00 73 1019.8
20190921204902 66 197 0.0 2.0 0.00 0.00 0.00 74 1019.9
20190921204402 66 1 1.0 4.0 0.00 0.00 0.00 75 1019.9
20190921203902 66 6 1.0 4.0 0.00 0.00 0.00 74 1020.0
20190921203402 67 254 1.0 4.0 0.00 0.00 0.00 73 1020.1
20190921202902 67 275 1.0 4.0 0.00 0.00 0.00 72 1020.1
20190921202400 67 3 1.0 4.0 0.00 0.00 0.00 73 1020.1
20190921201900 67 269 1.0 4.0 0.00 0.00 0.00 74 1020.1
20190921201359 67 0 2.0 8.0 0.00 0.00 0.00 74 1020.1
20190921200857 68 155 3.0 8.0 0.00 0.00 0.00 75 1020.2
20190921200356 68 150 3.0 6.0 0.00 0.00 0.00 74 1020.3
20190921195856 68 161 3.0 7.0 0.00 0.00 0.00 74 1020.3
20190921195358 68 140 3.0 7.0 0.00 0.00 0.00 74 1020.3
20190921194905 67 182 3.0 7.0 0.00 0.00 0.00 75 1020.3
20190921194400 67 148 3.0 6.0 0.00 0.00 0.00 75 1020.4
20190921193904 67 157 4.0 8.0 0.00 0.00 0.00 75 1020.4
20190921193357 67 151 4.0 8.0 0.00 0.00 0.00 75 1020.4
20190921192857 67 168 4.0 8.0 0.00 0.00 0.00 77 1020.3
20190921192357 67 153 4.0 8.0 0.00 0.00 0.00 77 1020.4
20190921191858 67 188 4.0 7.0 0.00 0.00 0.00 77 1020.5
20190921191405 66 153 5.0 8.0 0.00 0.00 0.00 77 1020.5
20190921190857 66 171 4.0 8.0 0.00 0.00 0.00 78 1020.6
20190921190357 66 155 4.0 8.0 0.00 0.00 0.00 78 1020.7
20190921185856 66 172 4.0 8.0 0.00 0.00 0.00 81 1020.7
20190921185356 66 120 3.0 8.0 0.00 0.00 0.00 84 1020.7
20190921184851 65 132 2.0 7.0 0.00 0.00 0.00 85 1020.9
20190921184352 65 0 3.0 6.0 0.00 0.00 0.00 86 1020.9
20190921183848 65 153 3.0 7.0 0.00 0.00 0.00 86 1020.9
20190921183348 65 162 3.0 7.0 0.00 0.00 0.00 88 1020.9
20190921182847 64 138 3.0 7.0 0.00 0.00 0.00 89 1021.0
20190921182348 64 141 3.0 7.0 0.00 0.00 0.00 89 1021.0
20190921181848 64 143 4.0 6.0 0.00 0.00 0.00 89 1021.1
20190921181348 64 168 4.0 7.0 0.00 0.00 0.00 89 1021.2
20190921180848 63 159 3.0 7.0 0.00 0.00 0.00 89 1021.3
20190921180348 63 158 2.0 6.0 0.00 0.00 0.00 89 1021.3
20190921175849 63 145 2.0 6.0 0.00 0.00 0.00 89 1021.3
20190921175348 62 195 2.0 6.0 0.00 0.00 0.00 89 1021.4
20190921174848 62 183 2.0 6.0 0.00 0.00 0.00 89 1021.5
20190921174348 62 174 1.0 4.0 0.00 0.00 0.00 89 1021.5
20190921173848 61 201 1.0 4.0 0.00 0.00 0.00 95 1021.5
20190921173348 61 164 1.0 4.0 0.00 0.00 0.00 95 1021.6
20190921172847 61 215 1.0 4.0 0.00 0.00 0.00 94 1021.7
20190921172346 60 179 2.0 3.0 0.00 0.00 0.00 96 1021.7
20190921171847 60 249 2.0 3.0 0.00 0.00 0.00 96 1021.7
20190921171345 60 193 1.0 2.0 0.00 0.00 0.00 96 1021.7
20190921170846 59 237 1.0 2.0 0.00 0.00 0.00 96 1021.7
20190921170346 59 130 1.0 2.0 0.00 0.00 0.00 96 1021.8
20190921165845 59 0 1.0 2.0 0.00 0.00 0.00 97 1021.7
20190921165346 59 0 1.0 2.0 0.00 0.00 0.00 97 1021.7
20190921164847 58 143 1.0 2.0 0.00 0.00 0.00 98 1021.7
20190921164347 58 208 0.0 2.0 0.00 0.00 0.00 98 1021.8
20190921163847 57 24 1.0 3.0 0.00 0.00 0.00 98 1021.9
20190921163347 57 187 0.0 3.0 0.00 0.00 0.00 98 1021.9
20190921162848 57 132 1.0 3.0 0.00 0.00 0.00 98 1022.0
20190921162348 57 4 1.0 4.0 0.00 0.00 0.00 98 1022.0
20190921161847 56 194 1.0 4.0 0.00 0.00 0.00 98 1022.0
20190921161347 56 0 2.0 4.0 0.00 0.00 0.00 98 1022.0
20190921160848 56 0 1.0 4.0 0.00 0.00 0.00 98 1021.9
20190921160401 56 0 1.0 3.0 0.00 0.00 0.00 98 1022.0
20190921155847 56 0 1.0 6.0 0.00 0.00 0.00 99 1022.0
20190921155348 56 91 2.0 6.0 0.00 0.00 0.00 99 1022.0
20190921154858 56 51 2.0 4.0 0.00 0.00 0.00 99 1022.0
20190921154347 56 42 2.0 4.0 0.00 0.00 0.00 99 1022.1
20190921153848 56 14 3.0 5.0 0.00 0.00 0.00 99 1022.1
20190921153344 56 34 2.0 5.0 0.00 0.00 0.00 99 1022.0
20190921152844 56 18 1.0 3.0 0.00 0.00 0.00 99 1022.0
20190921152342 56 0 0.0 2.0 0.00 0.00 0.00 99 1021.8
20190921151857 55 0 1.0 2.0 0.00 0.00 0.00 99 1021.9
20190921151354 55 0 1.0 2.0 0.00 0.00 0.00 99 1021.9
20190921150853 55 350 0.0 2.0 0.00 0.00 0.00 99 1021.9
20190921150353 55 0 0.0 1.0 0.00 0.00 0.00 99 1021.9
20190921145854 55 0 0.0 2.0 0.00 0.00 0.00 99 1022.0
20190921145353 55 0 1.0 2.0 0.00 0.00 0.00 99 1021.9
20190921144852 55 0 1.0 2.0 0.00 0.00 0.00 99 1021.9
20190921144353 55 300 1.0 2.0 0.00 0.00 0.00 99 1021.9
20190921143853 55 317 0.0 2.0 0.00 0.00 0.00 99 1021.8
20190921143355 55 0 0.0 1.0 0.00 0.00 0.00 99 1021.7
20190921142853 55 315 0.0 2.0 0.00 0.00 0.00 99 1021.7
20190921142348 55 0 0.0 2.0 0.00 0.00 0.00 99 1021.7
20190921141849 55 0 1.0 3.0 0.00 0.00 0.00 99 1021.7
20190921141346 55 0 1.0 3.0 0.00 0.00 0.00 99 1021.6
20190921140841 55 147 2.0 5.0 0.00 0.00 0.00 99 1021.6
20190921140339 55 189 2.0 5.0 0.00 0.00 0.00 99 1021.6
20190921135840 55 122 2.0 5.0 0.00 0.00 0.00 99 1021.6
20190921135339 55 175 3.0 6.0 0.00 0.00 0.00 99 1021.5
20190921134838 55 161 4.0 8.0 0.00 0.00 0.00 99 1021.5
20190921134337 55 154 4.0 8.0 0.00 0.00 0.00 99 1021.5
20190921133839 55 158 3.0 6.0 0.00 0.00 0.00 99 1021.5
20190921133339 55 185 1.0 4.0 0.00 0.00 0.00 99 1021.4
20190921132837 55 152 0.0 2.0 0.00 0.00 0.00 99 1021.4
20190921132336 55 0 0.0 2.0 0.00 0.00 0.00 99 1021.4
20190921131837 55 250 0.0 2.0 0.00 0.00 0.00 99 1021.3
20190921131338 55 0 0.0 3.0 0.00 0.00 0.00 99 1021.3
20190921130838 55 0 0.0 3.0 0.00 0.00 0.00 99 1021.4
20190921130338 55 0 0.0 3.0 0.00 0.00 0.00 99 1021.5
20190921125837 55 0 0.0 2.0 0.00 0.00 0.00 99 1021.5
20190921125337 55 0 0.0 2.0 0.00 0.00 0.00 99 1021.4
20190921124838 55 289 0.0 2.0 0.00 0.00 0.00 99 1021.5
20190921124338 55 0 0.0 1.0 0.00 0.00 0.00 99 1021.5
20190921123838 55 0 0.0 2.0 0.00 0.00 0.00 99 1021.6
20190921123338 55 0 0.0 2.0 0.00 0.00 0.00 99 1021.6
20190921122836 55 278 0.0 2.0 0.00 0.00 0.00 99 1021.7
20190921122337 55 244 0.0 2.0 0.00 0.00 0.00 99 1021.7
20190921121835 55 294 1.0 2.0 0.00 0.00 0.00 99 1021.8
20190921121336 55 307 0.0 3.0 0.00 0.00 0.00 99 1021.8
20190921120835 55 23 0.0 3.0 0.00 0.00 0.00 99 1021.8
20190921120335 56 0 0.0 2.0 0.00 0.00 0.00 99 1021.8
20190921115835 56 0 0.0 2.0 0.00 0.00 0.00 99 1021.7
20190921115339 56 244 0.0 2.0 0.00 0.00 0.00 99 1021.7
20190921114840 56 0 0.0 2.0 0.00 0.00 0.00 99 1021.7
20190921114336 56 318 0.0 2.0 0.00 0.00 0.00 99 1021.7
20190921113836 56 0 0.0 2.0 0.00 0.00 0.00 99 1021.7
20190921113335 56 212 0.0 3.0 0.00 0.00 0.00 99 1021.7
20190921112835 56 322 1.0 3.0 0.00 0.00 0.00 99 1021.6
20190921112335 56 21 0.0 3.0 0.00 0.00 0.00 99 1021.7
20190921111833 56 274 1.0 2.0 0.00 0.00 0.00 99 1021.7
20190921111335 56 165 1.0 2.0 0.00 0.00 0.00 99 1021.7
20190921110828 56 0 0.0 2.0 0.00 0.00 0.00 99 1021.7
20190921110329 56 157 0.0 2.0 0.00 0.00 0.00 99 1021.7
20190921105829 56 0 0.0 2.0 0.00 0.00 0.00 99 1021.7
20190921105332 56 210 0.0 2.0 0.00 0.00 0.00 99 1021.7
20190921104829 56 0 0.0 3.0 0.00 0.00 0.00 99 1021.7
20190921104327 56 0 1.0 3.0 0.00 0.00 0.00 99 1021.7
20190921103827 56 162 2.0 5.0 0.00 0.00 0.00 99 1021.7
20190921103327 56 174 3.0 5.0 0.00 0.00 0.00 99 1021.8
20190921102827 56 0 3.0 5.0 0.00 0.00 0.00 99 1021.7
20190921102328 56 127 2.0 4.0 0.00 0.00 0.00 99 1021.7
20190921101828 56 195 1.0 2.0 0.00 0.00 0.00 99 1021.7
20190921101327 56 249 0.0 2.0 0.00 0.00 0.00 99 1021.8
20190921100827 56 0 0.0 1.0 0.00 0.00 0.00 99 1021.7
20190921100323 56 0 0.0 2.0 0.00 0.00 0.00 99 1021.8
20190921095822 56 242 0.0 2.0 0.00 0.00 0.00 98 1021.7
20190921095321 56 0 0.0 1.0 0.00 0.00 0.00 99 1021.8
20190921094822 56 0 0.0 1.0 0.00 0.00 0.00 99 1021.8
20190921094321 56 0 0.0 1.0 0.00 0.00 0.00 98 1021.8
20190921093822 56 0 0.0 2.0 0.00 0.00 0.00 99 1021.8
20190921093322 56 0 0.0 2.0 0.00 0.00 0.00 99 1021.8
20190921092818 56 320 0.0 2.0 0.00 0.00 0.00 98 1021.8
20190921092318 56 0 0.0 2.0 0.00 0.00 0.00 99 1021.8
20190921091817 56 214 0.0 1.0 0.00 0.00 0.00 99 1021.9
20190921091315 56 248 0.0 2.0 0.00 0.00 0.00 99 1021.9
20190921090816 57 0 2.0 3.0 0.00 0.00 0.00 99 1021.9
20190921090316 56 206 2.0 3.0 0.00 0.00 0.00 99 1021.9
20190921085815 57 228 2.0 5.0 0.00 0.00 0.00 99 1021.9
20190921085316 57 187 3.0 5.0 0.00 0.00 0.00 99 1021.9
20190921084816 57 184 2.0 4.0 0.00 0.00 0.00 98 1021.8
20190921084315 56 209 1.0 2.0 0.00 0.00 0.00 98 1021.8
20190921083816 57 0 0.0 2.0 0.00 0.00 0.00 98 1021.8
20190921083316 57 0 0.0 2.0 0.00 0.00 0.00 98 1021.8
20190921082817 57 0 0.0 2.0 0.00 0.00 0.00 98 1021.8
20190921082317 57 271 0.0 2.0 0.00 0.00 0.00 98 1021.7
20190921081818 57 0 0.0 1.0 0.00 0.00 0.00 98 1021.6
20190921081317 57 0 1.0 3.0 0.00 0.00 0.00 98 1021.6
20190921080831 57 0 2.0 3.0 0.00 0.00 0.00 98 1021.6
20190921080328 57 208 1.0 2.0 0.00 0.00 0.00 98 1021.6
20190921075827 57 221 1.0 2.0 0.00 0.00 0.00 98 1021.5
20190921075326 57 0 1.0 2.0 0.00 0.00 0.00 98 1021.4
20190921074827 57 277 0.0 2.0 0.00 0.00 0.00 98 1021.3
20190921074328 58 0 0.0 1.0 0.00 0.00 0.00 98 1021.3
20190921073828 58 0 0.0 2.0 0.00 0.00 0.00 98 1021.3
20190921073327 58 0 0.0 2.0 0.00 0.00 0.00 98 1021.3
20190921072827 58 214 0.0 2.0 0.00 0.00 0.00 98 1021.2
20190921072327 58 219 0.0 2.0 0.00 0.00 0.00 98 1021.2
20190921071827 58 236 0.0 1.0 0.00 0.00 0.00 98 1021.2
20190921071326 58 0 0.0 2.0 0.00 0.00 0.00 98 1021.2
20190921070826 58 0 1.0 2.0 0.00 0.00 0.00 98 1021.2
20190921070324 58 248 1.0 2.0 0.00 0.00 0.00 97 1021.1
20190921065824 58 275 0.0 2.0 0.00 0.00 0.00 98 1021.1
20190921065323 58 0 1.0 3.0 0.00 0.00 0.00 98 1021.1
20190921064816 58 0 2.0 3.0 0.00 0.00 0.00 98 1021.1
20190921064316 59 208 2.0 3.0 0.00 0.00 0.00 98 1021.1
20190921063829 59 206 1.0 2.0 0.00 0.00 0.00 98 1021.0
20190921063325 59 0 0.0 2.0 0.00 0.00 0.00 97 1020.9
20190921062823 59 0 0.0 2.0 0.00 0.00 0.00 97 1020.9
20190921062315 59 0 0.0 2.0 0.00 0.00 0.00 97 1020.9
20190921061815 59 0 1.0 2.0 0.00 0.00 0.00 96 1020.9
20190921061309 59 278 1.0 2.0 0.00 0.00 0.00 97 1020.9
20190921060807 59 0 0.0 2.0 0.00 0.00 0.00 96 1020.9
20190921060313 59 0 0.0 2.0 0.00 0.00 0.00 97 1020.9
20190921055805 59 219 0.0 2.0 0.00 0.00 0.00 96 1020.9
20190921055303 59 0 0.0 2.0 0.00 0.00 0.00 96 1020.9
20190921054804 59 0 0.0 2.0 0.00 0.00 0.00 95 1020.8
20190921054301 59 48 1.0 3.0 0.00 0.00 0.00 95 1020.8
20190921053801 59 22 2.0 3.0 0.00 0.00 0.00 95 1020.8
20190921053300 59 281 1.0 2.0 0.00 0.00 0.00 94 1020.7
20190921052801 60 307 0.0 2.0 0.00 0.00 0.00 94 1020.7
20190921052300 60 0 0.0 2.0 0.00 0.00 0.00 94 1020.7
20190921051801 60 0 1.0 3.0 0.00 0.00 0.00 94 1020.6
20190921051302 60 14 1.0 3.0 0.00 0.00 0.00 94 1020.5
20190921050802 60 354 1.0 3.0 0.00 0.00 0.00 94 1020.6
20190921050301 60 0 1.0 2.0 0.00 0.00 0.00 89 1020.6
20190921045803 60 0 1.0 4.0 0.00 0.00 0.00 89 1020.6
20190921045302 60 0 1.0 4.0 0.00 0.00 0.00 89 1020.5
20190921044759 61 351 1.0 3.0 0.00 0.00 0.00 94 1020.5
20190921044258 61 196 0.0 2.0 0.00 0.00 0.00 94 1020.5
20190921043759 61 190 0.0 3.0 0.00 0.00 0.00 89 1020.5
20190921043259 61 158 0.0 3.0 0.00 0.00 0.00 89 1020.5
20190921042759 61 184 0.0 3.0 0.00 0.00 0.00 89 1020.4
20190921042258 61 202 0.0 3.0 0.00 0.00 0.00 89 1020.4
20190921041800 61 0 1.0 3.0 0.00 0.00 0.00 89 1020.4
20190921041258 61 242 1.0 2.0 0.00 0.00 0.00 89 1020.2
20190921040800 61 0 1.0 2.0 0.00 0.00 0.00 89 1020.2
20190921040300 62 0 1.0 3.0 0.00 0.00 0.00 89 1020.2
20190921035759 62 241 2.0 3.0 0.00 0.00 0.00 89 1020.1
20190921035259 62 231 1.0 3.0 0.00 0.00 0.00 89 1020.0
20190921034802 62 0 1.0 2.0 0.00 0.00 0.00 89 1020.0
20190921034300 62 0 1.0 2.0 0.00 0.00 0.00 89 1020.1
20190921033759 62 270 1.0 2.0 0.00 0.00 0.00 89 1020.1
20190921033300 62 276 1.0 2.0 0.00 0.00 0.00 89 1020.1
20190921032800 63 279 0.0 2.0 0.00 0.00 0.00 88 1020.1
20190921032259 63 0 0.0 1.0 0.00 0.00 0.00 89 1020.1
20190921031756 63 278 1.0 2.0 0.00 0.00 0.00 88 1020.0
20190921031259 63 254 1.0 2.0 0.00 0.00 0.00 88 1020.0
20190921030755 64 273 1.0 2.0 0.00 0.00 0.00 89 1020.0
20190921030255 64 269 1.0 2.0 0.00 0.00 0.00 88 1019.9
20190921025755 64 253 1.0 1.0 0.00 0.00 0.00 86 1020.0
20190921025258 64 272 1.0 1.0 0.00 0.00 0.00 86 1020.0
20190921024755 64 242 1.0 2.0 0.00 0.00 0.00 88 1019.9
20190921024255 64 247 2.0 2.0 0.00 0.00 0.00 88 1019.9
20190921023755 64 270 2.0 3.0 0.00 0.00 0.00 86 1019.9
20190921023255 64 285 2.0 3.0 0.00 0.00 0.00 86 1019.8
20190921022755 65 252 1.0 2.0 0.00 0.00 0.00 86 1019.8
20190921022254 65 250 2.0 3.0 0.00 0.00 0.00 85 1019.9
20190921021757 65 274 1.0 3.0 0.00 0.00 0.00 86 1019.9
20190921021255 65 247 1.0 2.0 0.00 0.00 0.00 86 1019.9
20190921020809 65 266 1.0 2.0 0.00 0.00 0.00 85 1019.9
20190921020307 65 260 1.0 2.0 0.00 0.00 0.00 85 1019.8
20190921015757 65 154 0.0 2.0 0.00 0.00 0.00 83 1019.8
20190921015255 65 0 0.0 1.0 0.00 0.00 0.00 83 1019.9
20190921014751 65 257 1.0 1.0 0.00 0.00 0.00 83 1020.0
20190921014251 65 246 1.0 1.0 0.00 0.00 0.00 82 1019.9
20190921013752 66 242 1.0 2.0 0.00 0.00 0.00 82 1020.0
20190921013251 66 258 1.0 2.0 0.00 0.00 0.00 81 1020.0
20190921012751 66 266 1.0 2.0 0.00 0.00 0.00 81 1020.0
20190921012257 66 275 1.0 2.0 0.00 0.00 0.00 81 1020.0
20190921011754 66 256 1.0 2.0 0.00 0.00 0.00 81 1019.9
20190921011252 67 262 1.0 2.0 0.00 0.00 0.00 79 1019.9
20190921010751 67 273 1.0 2.0 0.00 0.00 0.00 79 1019.8
20190921010253 67 229 1.0 2.0 0.00 0.00 0.00 81 1019.8
20190921005754 67 256 1.0 2.0 0.00 0.00 0.00 78 1019.9
20190921005253 67 257 1.0 2.0 0.00 0.00 0.00 77 1019.9
20190921004756 68 263 1.0 3.0 0.00 0.00 0.00 75 1019.8
20190921004259 68 200 2.0 3.0 0.00 0.00 0.00 73 1019.9
20190921003747 68 191 2.0 4.0 0.00 0.00 0.00 75 1019.8
20190921003249 68 198 2.0 4.0 0.00 0.00 0.00 75 1019.9
20190921002746 68 170 1.0 3.0 0.00 0.00 0.00 75 1020.0
20190921002241 68 243 1.0 3.0 0.00 0.00 0.00 75 1020.0
20190921001742 68 218 2.0 3.0 0.00 0.00 0.00 74 1020.0
20190921001243 68 193 2.0 3.0 0.00 0.00 0.00 73 1020.1
20190921000741 68 210 2.0 4.0 0.00 0.00 0.00 72 1020.1
20190921000238 68 155 2.0 4.0 0.00 0.00 0.00 72 1020.0
20190920235740 68 162 1.0 4.0 0.00 0.00 0.00 73 1020.0
20190920235242 68 207 1.0 2.0 0.00 0.00 0.00 73 1020.1
20190920234743 68 130 1.0 2.0 0.00 0.00 0.00 72 1020.2
20190920234239 68 152 1.0 2.0 0.00 0.00 0.00 72 1020.1
20190920233743 69 119 1.0 3.0 0.00 0.00 0.00 69 1020.1
20190920233238 69 122 2.0 4.0 0.00 0.00 0.00 71 1020.1
20190920232739 69 0 3.0 5.0 0.00 0.00 0.00 70 1020.1
20190920232239 69 155 3.0 6.0 0.00 0.00 0.00 71 1020.1
20190920231743 69 155 3.0 8.0 0.00 0.00 0.00 72 1020.2
20190920231237 69 174 3.0 8.0 0.00 0.00 0.00 71 1020.1
20190920230738 69 233 2.0 5.0 0.00 0.00 0.00 71 1020.2
20190920230237 69 161 2.0 5.0 0.00 0.00 0.00 72 1020.1
20190920225733 69 142 2.0 4.0 0.00 0.00 0.00 72 1020.1
20190920225236 68 181 2.0 5.0 0.00 0.00 0.00 72 1020.1
20190920224729 68 185 2.0 5.0 0.00 0.00 0.00 72 1020.1
20190920224230 68 165 2.0 4.0 0.00 0.00 0.00 72 1020.2
20190920223728 68 218 2.0 4.0 0.00 0.00 0.00 73 1020.3
20190920223229 68 168 2.0 4.0 0.00 0.00 0.00 73 1020.2
20190920222730 68 125 2.0 4.0 0.00 0.00 0.00 73 1020.2
20190920222229 68 155 2.0 5.0 0.00 0.00 0.00 73 1020.3
20190920221730 68 195 3.0 8.0 0.00 0.00 0.00 73 1020.3
20190920221229 68 183 3.0 8.0 0.00 0.00 0.00 73 1020.2
20190920220730 68 200 2.0 4.0 0.00 0.00 0.00 74 1020.2
20190920220230 68 184 3.0 7.0 0.00 0.00 0.00 74 1020.2
20190920215731 68 185 3.0 7.0 0.00 0.00 0.00 75 1020.2
20190920215229 67 144 3.0 6.0 0.00 0.00 0.00 75 1020.2
20190920214730 67 153 3.0 6.0 0.00 0.00 0.00 75 1020.2
20190920214230 67 160 3.0 6.0 0.00 0.00 0.00 75 1020.3
20190920213730 67 154 3.0 5.0 0.00 0.00 0.00 75 1020.3
20190920213228 67 160 3.0 7.0 0.00 0.00 0.00 77 1020.2